Location: Baix
(44.7118°N, 4.7648°E)
Time: 08:48:02
(UTC+00:00)

Vanguard 2 Rocket - Pass Details

Date: 03 December 2020
Orbit: 554 x 3325 km, 32.9° (Epoch: 21 January)

Event Time Altitude Azimuth Distance (km) Brightness Sun altitude
Rises 04:28:38 0° 207° (SSW) 6,203 11.0 -26.2°
Reaches altitude 10° 04:33:05 10° 198° (SSW) 5,530 10.8 -25.4°
Maximum altitude 04:47:39 32° 143° (SE) 4,608 10.8 -22.9°
Drops below altitude 10° 05:03:41 10° 91° (E) 6,143 12.3 -20.1°
Sets 05:08:55 0° 82° (E) 6,964 12.7 -19.2°
